Regional Weather Roundup
Issued by NWS Sioux Falls, SD

Home | Current Version | Previous Version | Graphics & Text | Print | Product List | Glossary On
Versions: 1 2 3 4 5 6 7 8 9 10 11 12 13 14 15 16 17 18 19 20 21 22 23 24 25 26 27 28 29 30 31 32 33 34 35 36 37 38 39 40 41 42 43 44 45 46 47 48 49 50
963
ASUS43 KFSD 311710
RWRFSD

WEATHER ROUNDUP FOR SE SOUTH DAKOTA/SW MINNESOTA/NW IOWA
NATIONAL WEATHER SERVICE SIOUX FALLS SD
1200 PM CDT TUE MAY 31 2016

NOTE: "FAIR" INDICATES FEW OR NO CLOUDS BELOW 12,000 FEET WITH NO
SIGNIFICANT WEATHER AND OR OBSTRUCTIONS TO VISIBILITY.


SDZ038>040-050-052>070-311800-
SOUTHEAST SOUTH DAKOTA

CITY           SKY/WX    TMP DP  RH WIND       PRES   REMARKS
BROOKINGS      SUNNY     65  48  54 W17       29.90R
CHAMBERLAIN    SUNNY     68  48  47 SW12      29.92S
HURON          SUNNY     67  45  45 NW20G30   29.89S
MADISON        FAIR      63  46  55 W15G25    29.93S
MITCHELL       SUNNY     67  46  47 W14       29.94R
SIOUX FALLS    MOSUNNY   66  49  54 W14G22    29.93S
WINNER         FAIR      68  44  42 W14       29.94F
YANKTON        SUNNY     66  46  48 NW14G20   29.96S
$$

MNZ071-072-080-081-089-090-097-098-311800-
SOUTHWEST MINNESOTA

CITY           SKY/WX    TMP DP  RH WIND       PRES   REMARKS
FAIRMONT       CLOUDY    64  59  82 W9        29.91R
JACKSON        CLOUDY    63  55  77 W8        29.93R
LUVERNE        MOSUNNY   64  50  59 NW14G20   29.93R
MARSHALL       MOSUNNY   67  52  58 W13       29.88R
MONTEVIDEO     SUNNY     70  55  60 NW9       29.87S
PIPESTONE      SUNNY     64  52  63 NW16      29.92R
REDWOOD FALLS  CLOUDY    67  55  65 W13       29.88R
TRACY          CLOUDY    67  56  67 W8        29.89S
WINDOM         CLOUDY    64  55  72 W5        29.92S
WORTHINGTON    CLOUDY    64  55  72 W13       29.94R
$$

IAZ001>003-012>014-020>022-031-032-NEZ013-014-SDZ071-311800-
NORTHWEST IOWA

CITY           SKY/WX    TMP DP  RH WIND       PRES   REMARKS
CHEROKEE       CLOUDY    64  62  94 W7        29.95F
DENISON        CLOUDY    66  63  88 NW12      29.93S
ESTHERVILLE    RAIN      63  61  93 W10       29.93R FOG
LE MARS        CLOUDY    66  55  68 NW12      29.97S
ORANGE CITY    CLOUDY    66  55  68 W13       29.95S
SHELDON        CLOUDY    66  55  68 NW12      29.93S
SIOUX CITY     MOSUNNY   70  57  63 NW16G22   29.96S
SPENCER        LGT RAIN  62  58  86 W12       29.94S FOG
STORM LAKE     CLOUDY    63  61  94 W9        29.96S
$$

ABBREVIATIONS USED IN REMARKS
   TC - TEMPERATURE IN CELSIUS
  WCI - WIND CHILL INDEX
   HX - HEAT INDEX
  VSB - VISIBILITY





USA.gov is the U.S. government's official web portal to all federal, state and local government web resources and services.